Погода в Реттиховке

Россия / Приморский край     44°10′07″N   132°46′16″E
темп.,
°C
ветер,
м/с
пор.,
м/с
влажн.,
%
обл.,
%
осадки,
мм/ч
давл.,
гПа
погр.,
м
26 февраля, пт
пт2601:00−13зсз2397100 0.4 1028110
04:00−14зсз2896100 0.7 1028433
07:00−18зсз119495 0.0 103020
10:00−14сз138454 0.0 1030303
13:00−11ссз37697 0.0 1031833
16:00−10ссз37694 0.0 1029804
19:00−15с11860 0.0 103120
22:00−16св128927 0.0 103320
27 февраля, сб
сб2701:00−17в118617 0.0 103520
04:00−18вюв118825 0.0 103520
07:00−19вюв229020 0.0 103633
10:00−15вюв238126 0.0 1035137
13:00−7юв23641 0.0 1033385
16:00−2ююз386146 0.0 1029709
19:00−7ю388035 0.0 1028227
22:00−8ююв399027 0.0 1029242
28 февраля, вс
вс2801:00−7ююв289368 0.0 1027208
04:00−3ююз3179284 0.0 1027586
07:00−3ююз3992100 0.0 1026244
10:00+1ююз41385100 0.0 1026637
13:00+3юз41283100 0.0 1024843
16:00+4юз31083100 0.0 1024849
19:000ссз2395100 0.0 102550
22:00−4ссз2797100 2.4 1026406
1 марта, пн
пн101:00−6ссз3895100 1.6 1028584
04:00−8ссз4991100 2.1 1030610
07:00−13ссз3991100 0.0 1033529
10:00−13с3785100 0.0 1035543
13:00−11с3671100 0.0 1034750
16:00−10с3668100 0.0 1033754
19:00−13ссв2482100 0.0 1032244
22:00−13ссв2482100 0.0 1033165
2 марта, вт
вт201:00−13ссв2780100 0.0 1031528
04:00−14с3788100 0.0 1030488
07:00−15с4892100 0.0 1029507
10:00−15с51167100 0.0 1029783
13:00−15с6106349 0.0 1028874
16:00−14с5106524 0.0 1028915
19:00−17ссз24830 0.0 1030118
22:00−19ссв11830 0.0 103221